• Processing (Info)

  • MPEC 1999-V14 : 1999 VV

    The following Minor Planet Electronic Circular may be linked-to from your own Web pages, but must not otherwise be redistributed electronically.

    A form allowing access to any MPEC is at the bottom of this page.


    Read MPEC 1999-V13 Read MPEC 1999-V15


    M.P.E.C. 1999-V14                                Issued 1999 Nov. 4, 17:52 UT
    
         The Minor Planet Electronic Circulars contain information on unusual
             minor planets and routine data on comets.  They are published
       on behalf of Commission 20 of the International Astronomical Union by the
              Minor Planet Center, Smithsonian Astrophysical Observatory,
                              Cambridge, MA 02138, U.S.A.
    
                 BMARSDEN@CFA.HARVARD.EDU or GWILLIAMS@CFA.HARVARD.EDU
              URL http://cfa-www.harvard.edu/iau/mpc.html  ISSN 1523-6714
    
                                        1999 VV
    
    Observations:
         J99V00V* C1999 11 01.33610 04 57 01.26 +39 03 05.0          19.1        704
         J99V00V  C1999 11 01.35233 04 56 57.79 +39 02 35.4          18.6        704
         J99V00V  C1999 11 01.36904 04 56 54.55 +39 02 04.9          18.5        704
         J99V00V  C1999 11 01.38650 04 56 51.15 +39 01 31.7          18.7        704
         J99V00V  C1999 11 01.40327 04 56 47.78 +39 01 00.7          18.7        704
         J99V00V  C1999 11 02.00093 04 54 52.84 +38 42 19.7          17.3 R      046
         J99V00V  C1999 11 02.00248 04 54 52.56 +38 42 16.6                      046
         J99V00V  C1999 11 02.00383 04 54 52.29 +38 42 14.2                      046
         J99V00V  C1999 11 02.00513 04 54 52.07 +38 42 11.4                      046
         J99V00V  C1999 11 02.01926 04 54 49.25 +38 41 44.7                      557
         J99V00V  C1999 11 02.03318 04 54 46.49 +38 41 18.2                      557
         J99V00V IC1999 11 02.03522 04 54 46.10 +38 41 14.0                      557
         J99V00V  C1999 11 02.26853 04 54 01.31 +38 33 51.8          18.4 R      853
         J99V00V  C1999 11 02.27031 04 54 00.98 +38 33 48.6          18.3 R      853
         J99V00V  C1999 11 02.27148 04 54 00.74 +38 33 46.5          18.3 R      853
         J99V00V  C1999 11 02.31630 04 53 51.76 +38 32 21.6          18.1        704
         J99V00V  C1999 11 02.33263 04 53 48.57 +38 31 50.3          18.6        704
         J99V00V  C1999 11 02.34880 04 53 45.33 +38 31 19.5          18.3        704
         J99V00V  C1999 11 02.36509 04 53 42.06 +38 30 45.7          19.4        704
         J99V00V  C1999 11 02.38118 04 53 38.86 +38 30 17.3          18.1        704
         J99V00V  C1999 11 02.85402 04 52 07.03 +38 14 58.4                      046
         J99V00V  C1999 11 02.85631 04 52 06.55 +38 14 54.1                      046
         J99V00V  C1999 11 02.85752 04 52 06.37 +38 14 51.7                      046
         J99V00V  C1999 11 02.85873 04 52 06.11 +38 14 49.0                      046
         J99V00V  C1999 11 03.24921 04 50 49.37 +38 02 06.9          18.7 R      853
         J99V00V  C1999 11 03.25073 04 50 49.08 +38 02 04.2          18.5 R      853
         J99V00V  C1999 11 03.25264 04 50 48.67 +38 02 00.3          18.4 R      853
         J99V00V  C1999 11 03.41697 04 50 15.51 +37 56 36.9                      711
         J99V00V  C1999 11 03.42339 04 50 14.24 +37 56 24.0                      711
         J99V00V  C1999 11 03.42870 04 50 13.15 +37 56 13.3                      711
         J99V00V  C1999 11 04.04696 04 48 10.85 +37 35 30.5                      611
         J99V00V  C1999 11 04.05075 04 48 10.06 +37 35 22.7                      611
         J99V00V  C1999 11 04.23219 04 47 34.45 +37 29 14.3          18.8 R      853
         J99V00V  C1999 11 04.23519 04 47 33.86 +37 29 08.6          18.7 R      853
         J99V00V  C1999 11 04.24016 04 47 32.85 +37 28 58.4          18.3 R      853
         J99V00V  C1999 11 04.41023 04 46 58.14 +37 23 12.6                      711
         J99V00V  C1999 11 04.41502 04 46 57.16 +37 23 02.9                      711
         J99V00V  C1999 11 04.41961 04 46 56.20 +37 22 53.6                      711
    
    Observer details:
    046 Klet.  Observers M. Tichy, Z. Moravec.  0.57-m f/5.2 reflector + CCD.
    557 Ondrejov.  Observer L. Sarounova.  0.65-m f/3.6 reflector + CCD.
    611 Starkenburg.  Observer R. Stoss.  0.45-m f/4.4 reflector + CCD.
    704 Lincoln Laboratory ETS, New Mexico.  Observers M. Blythe, F. Shelly,
        M. Bezpalko, M. Elowitz, R. Huber.  Measurers J. Stuart, H. Viggh,
        R. Sayer.  1.0-m f/2.15 reflector + CCD.
    711 McDonald Observatory.  Observer P. J. Shelus.  0.76-m reflector + CCD.
    853 Biosphere 2 Observatory.  Observers G. J. Garradd, T. L. Laurance.
        0.5-m f/8.1 reflector + CCD.
    
    Orbital elements:
    1999 VV
    Epoch 1999 Oct. 29.0 TT = JDT 2451480.5                 Williams
    M 118.83656              (2000.0)            P               Q
    n   0.60524066     Peri.   20.17598     -0.32026297     +0.53995888
    a   1.3841526      Node   240.86656     -0.94439840     -0.24655546
    e   0.3953023      Incl.   63.01397     -0.07445325     +0.80477004
    P   1.63           H   16.8           G   0.15
    From 38 observations 1999 Nov. 1-4.
    
    Ephemeris:
    1999 VV                  a,e,i = 1.38, 0.40, 63                  q = 0.8370
    Date    TT    R. A. (2000) Decl.     Delta      r     Elong.  Phase     V
    1999 10 29    05 07.35   +40 40.0    0.938    1.770   132.9    24.3    19.0
    1999 11 03    04 51.63   +38 10.3    0.901    1.786   141.2    20.4    18.8
    1999 11 08    04 34.82   +35 13.6    0.873    1.801   150.1    15.9    18.6
    1999 11 13    04 17.57   +31 51.3    0.855    1.815   159.4    11.1    18.4
    1999 11 18    04 00.60   +28 08.8    0.848    1.828   168.7     6.1    18.2
    1999 11 23    03 44.58   +24 14.8    0.854    1.840   175.6     2.4    18.0
    1999 11 28    03 29.99   +20 19.9    0.873    1.852   169.8     5.4    18.3
    1999 12 03    03 17.16   +16 34.4    0.903    1.863   160.9    10.0    18.6
    1999 12 08    03 06.24   +13 06.3    0.945    1.873   152.1    14.3    18.8
    1999 12 13    02 57.26   +10 00.4    0.995    1.882   143.8    18.0    19.1
    1999 12 18    02 50.13   +07 18.7    1.054    1.890   136.0    21.2    19.3
    1999 12 23    02 44.70   +05 00.9    1.120    1.898   128.9    23.8    19.6
    1999 12 28    02 40.80   +03 05.1    1.190    1.905   122.2    25.9    19.8
    2000 01 02    02 38.27   +01 29.0    1.263    1.911   116.0    27.6    19.9
    2000 01 07    02 36.94   +00 10.1    1.339    1.916   110.2    28.8    20.1
    2000 01 12    02 36.68   -00 54.0    1.417    1.921   104.8    29.7    20.3
    2000 01 17    02 37.36   -01 45.8    1.495    1.924    99.8    30.2    20.4
    2000 01 22    02 38.85   -02 27.2    1.573    1.927    95.0    30.6    20.5
    2000 01 27    02 41.05   -03 00.0    1.651    1.929    90.5    30.7    20.6
    2000 02 01    02 43.90   -03 25.6    1.727    1.931    86.2    30.6    20.7
    2000 02 06    02 47.31   -03 45.2    1.801    1.931    82.1    30.4    20.8
    2000 02 11    02 51.23   -04 00.1    1.873    1.931    78.2    30.0    20.9
    2000 02 16    02 55.61   -04 11.1    1.943    1.930    74.5    29.6    21.0
    2000 02 21    03 00.41   -04 19.1    2.009    1.928    71.0    29.0    21.0
    2000 02 26    03 05.57   -04 24.6    2.072    1.926    67.6    28.4    21.1
    2000 03 02    03 11.08   -04 28.3    2.132    1.922    64.3    27.7    21.1
    2000 03 07    03 16.92   -04 30.7    2.188    1.918    61.2    27.0    21.1
    
    Gareth V. Williams           (C) Copyright 1999 MPC           M.P.E.C. 1999-V14
    

    Read MPEC 1999-V13 Read MPEC 1999-V15


    MPEC number:

    Enter an MPEC number in one of the following forms:

    • 1997-B01 (the full form)
    • J97B01 (the packed version of the full form)
    • B01 (the abbreviated form)